Location: Gallinara
(44.0333°N, 8.2333°E)
Time: 17:22:31
(UTC+00:00)

ERBS - Pass Details

Date: 25 September 2020
Orbit: 411 x 419 km, 57.0° (Epoch: 30 October)

Event Time Altitude Azimuth Distance (km) Brightness Sun altitude
Exits shadow 03:11:37 20° 356° (N) 1,057 4.4 -23.0°
Drops below altitude 10° 03:13:24 10° 25° (NNE) 1,511 5.7 -22.7°
Sets 03:15:49 0° 42° (NE) 2,380 7.1 -22.3°
